Regional Weather Roundup
Issued by NWS

Home | Current Version | Previous Version | Graphics & Text | Print | Product List | Glossary On
Versions: 1 2 3 4 5 6 7 8 9 10 11 12 13 14 15 16 17 18 19 20 21 22 23 24 25 26 27 28 29 30 31 32 33 34 35 36 37 38 39 40 41 42 43 44 45 46 47 48 49 50
000
ASUS45 KABQ 190410
RWRNM
NEW MEXICO REGIONAL WEATHER ROUNDUP
NATIONAL WEATHER SERVICE ALBUQUERQUE NM
900 PM MST WED JAN 18 2017

NOTE: "FAIR" MEANS FEW OR NO CLOUDS BELOW 12,000 FEET AGL WITH NO
       SIGNIFICANT WEATHER OR OBSTRUCTIONS TO VISION.

      THIS PRODUCT IS RELEASED AS TWO VERSIONS.  ONE VERSION NEAR
      THE TOP OF THE HOUR CONTAINING PRELIMINARY DATA FROM ALBUQUERQUE
      AND OTHER STATIONS.  A FINAL VERSION WITH ADDITIONAL DATA IS
      ISSUED ABOUT 10 MINUTES AFTER THE HOUR.

NMZ501-503-504-510>518-190500-
NORTHWEST PLATEAU/NORTHCENTRAL MOUNTAINS

CITY           SKY/WX    TMP DP  RH WIND       PRES   REMARKS
FARMINGTON     FAIR      30  26  85 CALM      30.00S
LOS ALAMOS     FAIR      32  22  67 SW3       29.99S
SANTA FE       FAIR      31  25  78 NW7       29.97F WCI  24
TAOS           CLOUDY    28  19  69 N3        29.97S
ANGEL FIRE     MOCLDY    26  22  84 W7G23     29.94F WCI  19

$$
NMZ402-403-502-505>509-190500-
WESTCENTRAL MOUNTAINS/SOUTHWEST MOUNTAINS

CITY           SKY/WX    TMP DP  RH WIND       PRES   REMARKS
GALLUP         FAIR      32  28  85 CALM      30.03F
GRANTS         FAIR      29  26  87 CALM      30.04F
SILVER CITY    FAIR      33  32  95 N5        30.07S WCI  28

$$
NMZ407-409-411-412-190500-
SOUTHERN DESERTS

CITY           SKY/WX    TMP DP  RH WIND       PRES   REMARKS
DEMING         FAIR      44  37  76 NW6       30.05S
LAS CRUCES     CLOUDY    45  37  74 W9        30.04F
HOLLOMAN AFB   CLOUDY    45  39  80 SE5       30.04S
ALAMOGORDO     CLOUDY    46  37  71 S6        30.02S
T OR C         FAIR      44  33  65 W8        30.01F

$$
NMZ519>523-190500-
CENTRAL VALLEYS/CENTRAL HIGHLANDS

CITY           SKY/WX    TMP DP  RH WIND       PRES   REMARKS
ALBUQUERQUE    FAIR      41  31  67 N8        30.00S
DOUBLE EAGLE   PTCLDY    34  28  80 NW6       30.01F WCI  29
MORIARTY ARPT  FAIR      32  26  77 W8        29.97F WCI  25
CLINES CORNERS FAIR      30  23  75 NW24G32   29.91F WCI  16
BELEN          FAIR      39  29  67 NW8       30.00F WCI  33
SOCORRO        FAIR      40  30  67 NW5       30.00F

$$
NMZ524>526-539-540-190500-
SOUTHCENTRAL MOUNTAINS

CITY           SKY/WX    TMP DP  RH WIND       PRES   REMARKS
RUIDOSO        MOCLDY    36  28  75 W12       29.97F WCI  27

$$
NMZ527>531-190500-
NORTHEAST HIGHLANDS/NORTHEAST PLAINS

CITY           SKY/WX    TMP DP  RH WIND       PRES   REMARKS
LAS VEGAS      FAIR      28  17  63 W9        29.82F WCI  19
RATON          FAIR      26  22  84 N7        29.77F WCI  18
CLAYTON        FAIR      35  29  78 W9        29.74F WCI  28

$$
NMZ532>537-190500-
EASTCENTRAL PLAINS

CITY           SKY/WX    TMP DP  RH WIND       PRES   REMARKS
TUCUMCARI      FAIR      42  32  67 SW13      29.76F
CANNON AFB     FAIR      42  42 100 SW14      29.86F
CLOVIS AIRPORT FAIR      39  34  81 SW13      29.86F WCI  32

$$
NMZ028-029-538-190500-
SOUTHEAST PLAINS

CITY           SKY/WX    TMP DP  RH WIND       PRES   REMARKS
ROSWELL        FAIR      43  34  70 W7        29.93F
ARTESIA        MOCLDY    50  41  71 SW15      29.95F
CARLSBAD       FAIR      49  40  71 SW12      29.96F


$$




USA.gov is the U.S. government's official web portal to all federal, state and local government web resources and services.